Torna al catalogo

SL-16 DEB

AttivoLEO
NORAD 22403·DEBRIS·🇷🇺 Russia

Lanciato Dec 25, 1992 da Baikonur Cosmodrome

Loading…

Prossimi Passaggi (prossime 24 ore)

TLE

AggiornatoSource: Space-Track

Epoca: Sep 14, 2026, 03:30 UTC

1 22403U 92093CU  26257.14614412  .00000144  00000-0  11098-3 0  9990
2 22403  70.8932  24.5701 0081855 346.3987  70.1129 14.07087341721957

Traccia SL-16 DEB in tempo reale con AllMySat

Download on the App Store